Location: Newark
(39.8850°N, 17.2769°E)
Time: 16:51:40
(UTC+00:00)

Hubble Space Telescope - Pass Details

Date: 19 November 2019
Orbit: 536 x 540 km, 28.5° (Epoch: 08 December)

Event Time Altitude Azimuth Distance (km) Brightness Sun altitude
Rises 18:05:27 0° 232° (SW) 2,668 5.1 -29.2°
Reaches altitude 10° 18:08:28 10° 208° (SSW) 1,779 3.7 -29.8°
Enters shadow 18:08:41 11° 206° (SSW) 1,731 3.6 -29.9°
